Regional Weather Roundup
Issued by NWS

Home | Current Version | Previous Version | Text Only | Print | Product List | Glossary On
Versions: 1 2 3 4 5 6 7 8 9 10 11 12 13 14 15 16 17 18 19 20 21 22 23 24 25 26 27
000
ASCA42 TJSJ 250710
RWRPR
PUERTO RICO/U.S. VIRGIN ISLANDS HOURLY WEATHER ROUNDUP
NATIONAL WEATHER SERVICE SAN JUAN PR
300 AM AST THU MAY 25 2017

PRZ001>002-007>008-010-250800-
PUERTO RICO

CITY           SKY/WX    TMP DP  RH WIND       PRES   REMARKS
SAN JUAN LMM   CLEAR     81  73  78 E6        30.05F
PONCE          PTCLDY    75  70  83 NE6       30.07
AGUADILLA      CLEAR     73  70  88 SE3       30.07S
CEIBA          CLOUDY    81  75  83 E9        30.08S
$$

VIZ001>002-250800-
U.S. VIRGIN ISLANDS

CITY           SKY/WX    TMP DP  RH WIND       PRES   REMARKS
CHARLOTTE AMA  CLOUDY    82  75  78 E7        30.06S
CHRISTIANSTED  CLOUDY    79  75  89 NE5       30.05S
$$

HOURLY WEATHER ROUNDUP FOR THE NEWS MEDIA

CITY           SKY/WX    TMP DP  RH WIND       PRES   REMARKS
ORLANDO        MOCLDY    74  72  93 S12       29.75S
NEW YORK       CLOUDY    58  55  90 E13       29.77F
NEWARK         CLOUDY    58  53  84 E9        29.75F
CHICAGO        CLOUDY    56  50  80 N10       29.54F
HARTFORD       PTCLDY   N/A N/A N/A MISG      29.83F
BOSTON         CLOUDY    54  51  90 CALM      29.87F
DALLAS         PTCLDY    67  48  50 SE12      29.71R
PHILADELPHIA   LGT RAIN  57  53  86 E13       29.71F
LOS ANGELES    CLOUDY    59  53  80 SW6       29.86R
WASHINGTON DC  LGT RAIN  56  54  93 E16       29.56F



USA.gov is the U.S. government's official web portal to all federal, state and local government web resources and services.